Change the Weather History Date:

Sunday, September 29, 2013

  Actual Average (KBFD) Record (KBFD)
Temperature  
Mean Temperature 57 °F 52 °F  
Max Temperature 68 °F 63 °F 82 °F (1959)
Min Temperature 46 °F 41 °F 25 °F (2000)
Degree Days  
Heating Degree Days 8 9  
Month to date heating degree days 138  
Since 1 July heating degree days 291  
Cooling Degree Days 0 0  
Month to date cooling degree days 13  
Year to date cooling degree days 190  
Growing Degree Days 7 (Base 50)    
Moisture  
Dew Point 48 °F    
Average Humidity 76    
Maximum Humidity 93    
Minimum Humidity 52    
Precipitation  
Precipitation 0.00 in 0.13 in 1.67 in (1999)
Month to date precipitation 3.79  
Year to date precipitation 33.74  
Sea Level Pressure  
Sea Level Pressure 30.12 in    
Wind  
Wind Speed 7 mph (South)    
Max Wind Speed 12 mph    
Max Gust Speed 16 mph    
Visibility 10 miles    
Events      
T = Trace of Precipitation, MM = Missing Value Source: NWS Daily Summary

Daily Weather History Graph

Daily Weather History Graph

Search for Another Location

Airport or City:

Trip Planner

Search our weather history database for the weather conditions in past years. The results will help you decide how hot, cold, wet, or windy it might be!

Date:

Astronomy

Sep. 29, 2013 Rise Set
Actual Time 7:08 AM EDT 6:58 PM EDT
Civil Twilight 6:40 AM EDT 7:25 PM EDT
Nautical Twilight 6:08 AM EDT 7:58 PM EDT
Astronomical Twilight 5:35 AM EDT 8:31 PM EDT
Moon 1:43 AM EDT (9/29) 3:57 PM EDT (9/29)
Length of Visible Light 12h 45m
Length of Day
11h 49m
Waning Crescent, 27% of the Moon is Illuminated
Sep 29
Waning Crescent
Oct 4
New
Oct 11
First Quarter
Oct 18
Full
Oct 26
Last Quarter

Hourly Weather History & Observations

Time (EDT) Temp. Windchill Dew Point Humidity Pressure Visibility Wind Dir Wind Speed Gust Speed Precip Events Conditions
12:15 AM 50.0 °F - 46.4 °F 87% 30.20 in 10.0 mi South 5.8 mph - N/A   Clear
12:35 AM 50.0 °F - 46.4 °F 87% 30.20 in 10.0 mi South 5.8 mph - N/A   Clear
12:55 AM 50.0 °F - 46.4 °F 87% 30.20 in 10.0 mi South 5.8 mph - N/A   Clear
1:15 AM 50.0 °F - 46.4 °F 87% 30.19 in 10.0 mi South 8.1 mph - N/A   Clear
1:35 AM 50.0 °F - 46.4 °F 87% 30.19 in 10.0 mi South 4.6 mph - N/A   Clear
1:55 AM 50.0 °F - 46.4 °F 87% 30.19 in 10.0 mi South 5.8 mph - N/A   Clear
2:15 AM 48.2 °F - 46.4 °F 93% 30.18 in 10.0 mi South 8.1 mph - N/A   Clear
2:35 AM 48.2 °F - 46.4 °F 93% 30.18 in 10.0 mi South 6.9 mph - N/A   Clear
2:55 AM 48.2 °F - 44.6 °F 87% 30.17 in 10.0 mi South 8.1 mph - N/A   Clear
3:15 AM 48.2 °F - 44.6 °F 87% 30.17 in 10.0 mi SSW 6.9 mph - N/A   Clear
3:35 AM 46.4 °F 42.4 °F 44.6 °F 93% 30.16 in 10.0 mi South 8.1 mph - N/A   Clear
3:55 AM 46.4 °F 42.4 °F 44.6 °F 93% 30.16 in 10.0 mi South 8.1 mph - N/A   Clear
4:15 AM 48.2 °F - 44.6 °F 87% 30.16 in 10.0 mi South 9.2 mph - N/A   Clear
4:35 AM 46.4 °F 42.9 °F 44.6 °F 93% 30.15 in 10.0 mi SSW 6.9 mph - N/A   Clear
4:55 AM 46.4 °F 42.9 °F 44.6 °F 93% 30.15 in 10.0 mi SSW 6.9 mph - N/A   Clear
5:15 AM 46.4 °F 43.5 °F 44.6 °F 93% 30.15 in 10.0 mi SSW 5.8 mph - N/A   Clear
5:35 AM 46.4 °F 44.3 °F 44.6 °F 93% 30.15 in 10.0 mi South 4.6 mph - N/A   Clear
5:55 AM 46.4 °F 42.9 °F 44.6 °F 93% 30.15 in 10.0 mi SSW 6.9 mph - N/A   Clear
6:15 AM 46.4 °F 43.5 °F 44.6 °F 93% 30.16 in 10.0 mi SSW 5.8 mph - N/A   Clear
6:35 AM 46.4 °F 42.9 °F 44.6 °F 93% 30.16 in 10.0 mi SSW 6.9 mph - N/A   Clear
6:55 AM 46.4 °F 42.4 °F 44.6 °F 93% 30.16 in 10.0 mi South 8.1 mph - N/A   Clear
7:15 AM 46.4 °F 42.4 °F 44.6 °F 93% 30.16 in 10.0 mi South 8.1 mph - N/A   Scattered Clouds
7:35 AM 46.4 °F 42.9 °F 44.6 °F 93% 30.17 in 10.0 mi South 6.9 mph - N/A   Mostly Cloudy
7:55 AM 48.2 °F - 44.6 °F 87% 30.17 in 10.0 mi SSW 8.1 mph - N/A   Overcast
8:15 AM 48.2 °F - 44.6 °F 87% 30.16 in 10.0 mi South 8.1 mph - N/A   Mostly Cloudy
8:35 AM 50.0 °F - 46.4 °F 87% 30.16 in 10.0 mi South 8.1 mph - N/A   Scattered Clouds
8:55 AM 50.0 °F - 46.4 °F 87% 30.16 in 10.0 mi South 6.9 mph - N/A   Clear
9:15 AM 51.8 °F - 46.4 °F 82% 30.16 in 10.0 mi South 8.1 mph - N/A   Scattered Clouds
9:35 AM 53.6 °F - 46.4 °F 77% 30.16 in 10.0 mi South 8.1 mph - N/A   Scattered Clouds
9:55 AM 53.6 °F - 46.4 °F 77% 30.16 in 10.0 mi South 9.2 mph - N/A   Scattered Clouds
10:15 AM 53.6 °F - 46.4 °F 77% 30.16 in 10.0 mi SSW 6.9 mph 16.1 mph N/A   Clear
10:35 AM 55.4 °F - 46.4 °F 72% 30.16 in 10.0 mi SSW 11.5 mph - N/A   Clear
10:55 AM 57.2 °F - 48.2 °F 72% 30.15 in 10.0 mi SSW 9.2 mph - N/A   Clear
11:15 AM 59.0 °F - 48.2 °F 67% 30.15 in 10.0 mi SSW 8.1 mph - N/A   Clear
11:35 AM 59.0 °F - 50.0 °F 72% 30.15 in 10.0 mi SSW 6.9 mph - N/A   Clear
11:55 AM 60.8 °F - 50.0 °F 68% 30.14 in 10.0 mi SSW 8.1 mph - N/A   Clear
12:15 PM 60.8 °F - 50.0 °F 68% 30.13 in 10.0 mi SSW 9.2 mph - N/A   Clear
12:35 PM 62.6 °F - 50.0 °F 63% 30.13 in 10.0 mi South 6.9 mph - N/A   Clear
12:55 PM 62.6 °F - 50.0 °F 63% 30.12 in 10.0 mi SW 6.9 mph - N/A   Clear
1:15 PM 64.4 °F - 50.0 °F 59% 30.11 in 10.0 mi South 5.8 mph - N/A   Clear
1:35 PM 64.4 °F - 50.0 °F 59% 30.11 in 10.0 mi SSW 6.9 mph - N/A   Clear
1:55 PM 64.4 °F - 50.0 °F 59% 30.10 in 10.0 mi South 5.8 mph - N/A   Clear
2:15 PM 68.0 °F - 50.0 °F 52% 30.09 in 10.0 mi SSE 6.9 mph - N/A   Clear
2:35 PM 68.0 °F - 50.0 °F 52% 30.08 in 10.0 mi South 9.2 mph - N/A   Scattered Clouds
2:55 PM 68.0 °F - 50.0 °F 52% 30.08 in 10.0 mi South 4.6 mph - N/A   Scattered Clouds
3:15 PM 68.0 °F - 50.0 °F 52% 30.07 in 10.0 mi SSW 8.1 mph - N/A   Clear
3:35 PM 68.0 °F - 50.0 °F 52% 30.07 in 10.0 mi South 3.5 mph - N/A   Scattered Clouds
3:55 PM 68.0 °F - 50.0 °F 52% 30.07 in 10.0 mi South 4.6 mph - N/A   Scattered Clouds
4:15 PM 64.4 °F - 50.0 °F 59% 30.07 in 10.0 mi SSW 3.5 mph - N/A   Scattered Clouds
4:35 PM 68.0 °F - 50.0 °F 52% 30.07 in 10.0 mi South 6.9 mph - N/A   Mostly Cloudy
4:55 PM 66.2 °F - 50.0 °F 56% 30.05 in 10.0 mi SSW 5.8 mph - N/A   Scattered Clouds
5:15 PM 64.4 °F - 50.0 °F 59% 30.05 in 10.0 mi SSE 5.8 mph - N/A   Scattered Clouds
5:35 PM 64.4 °F - 50.0 °F 59% 30.05 in 10.0 mi SSE 4.6 mph - N/A   Clear
5:55 PM 64.4 °F - 50.0 °F 59% 30.05 in 10.0 mi SE 5.8 mph - N/A   Clear
6:15 PM 62.6 °F - 50.0 °F 63% 30.06 in 10.0 mi South 4.6 mph - N/A   Clear
6:35 PM 62.6 °F - 50.0 °F 63% 30.06 in 10.0 mi South 4.6 mph - N/A   Clear
6:55 PM 60.8 °F - 50.0 °F 68% 30.06 in 10.0 mi South 4.6 mph - N/A   Clear
7:15 PM 60.8 °F - 50.0 °F 68% 30.06 in 10.0 mi South 3.5 mph - N/A   Clear
7:35 PM 60.8 °F - 50.0 °F 68% 30.07 in 10.0 mi South 4.6 mph - N/A   Mostly Cloudy
7:55 PM 60.8 °F - 50.0 °F 68% 30.07 in 10.0 mi South 4.6 mph - N/A   Overcast
8:15 PM 59.0 °F - 50.0 °F 72% 30.07 in 10.0 mi South 5.8 mph - N/A   Scattered Clouds
8:35 PM 59.0 °F - 50.0 °F 72% 30.08 in 10.0 mi South 5.8 mph - N/A   Mostly Cloudy
8:55 PM 59.0 °F - 50.0 °F 72% 30.08 in 10.0 mi South 5.8 mph - N/A   Mostly Cloudy
9:15 PM 59.0 °F - 50.0 °F 72% 30.08 in 10.0 mi SSW 5.8 mph - N/A   Mostly Cloudy
9:35 PM 57.2 °F - 50.0 °F 77% 30.09 in 10.0 mi SSW 5.8 mph - N/A   Scattered Clouds
9:55 PM 55.4 °F - 50.0 °F 82% 30.09 in 10.0 mi South 5.8 mph - N/A   Mostly Cloudy
10:15 PM 57.2 °F - 50.0 °F 77% 30.08 in 10.0 mi South 6.9 mph - N/A   Mostly Cloudy
10:35 PM 55.4 °F - 48.2 °F 77% 30.08 in 10.0 mi South 6.9 mph - N/A   Scattered Clouds
10:55 PM 55.4 °F - 48.2 °F 77% 30.08 in 10.0 mi South 5.8 mph - N/A   Clear
11:15 PM 55.4 °F - 48.2 °F 77% 30.08 in 10.0 mi SSW 6.9 mph - N/A   Scattered Clouds
11:35 PM 53.6 °F - 48.2 °F 82% 30.08 in 10.0 mi South 6.9 mph - N/A   Clear
11:55 PM 53.6 °F - 48.2 °F 82% 30.07 in 10.0 mi South 9.2 mph - N/A   Clear